TimeCST,TemperatureF,Dew PointF,Humidity,Sea Level PressureIn,VisibilityMPH,Wind Direction,Wind SpeedMPH,Gust SpeedMPH,PrecipitationIn,Events,Conditions,WindDirDegrees,DateUTC
12:15 AM,10.4,6.8,85,30.14,10.0,WSW,4.6,-,N/A,,Mostly Cloudy,250,2012-12-30 06:15:00
12:35 AM,10.4,6.8,85,30.14,10.0,WSW,6.9,-,N/A,,Mostly Cloudy,240,2012-12-30 06:35:00
12:55 AM,10.4,6.8,85,30.16,10.0,WSW,4.6,-,N/A,,Mostly Cloudy,250,2012-12-30 06:55:00
1:15 AM,8.6,5.0,85,30.16,10.0,WSW,6.9,-,N/A,,Mostly Cloudy,250,2012-12-30 07:15:00
1:35 AM,8.6,5.0,85,30.16,10.0,WSW,5.8,-,N/A,,Clear,250,2012-12-30 07:35:00
1:55 AM,8.6,5.0,85,30.16,10.0,WSW,5.8,-,N/A,,Clear,240,2012-12-30 07:55:00
2:15 AM,8.6,5.0,85,30.16,10.0,SW,5.8,-,N/A,,Mostly Cloudy,230,2012-12-30 08:15:00
2:35 AM,8.6,5.0,85,30.18,10.0,SW,6.9,-,N/A,,Overcast,230,2012-12-30 08:35:00
2:55 AM,10.4,6.8,85,30.19,10.0,WSW,8.1,-,N/A,,Overcast,240,2012-12-30 08:55:00
3:15 AM,10.4,6.8,85,30.19,10.0,SW,5.8,-,N/A,,Overcast,230,2012-12-30 09:15:00
3:35 AM,10.4,6.8,85,30.19,7.0,WSW,3.5,-,N/A,,Overcast,250,2012-12-30 09:35:00
3:55 AM,12.2,8.6,85,30.20,10.0,WSW,6.9,-,N/A,,Overcast,250,2012-12-30 09:55:00
4:15 AM,12.2,8.6,85,30.20,7.0,West,6.9,-,N/A,,Overcast,260,2012-12-30 10:15:00
4:35 AM,10.4,8.6,92,30.20,7.0,West,5.8,-,N/A,,Overcast,270,2012-12-30 10:35:00
4:55 AM,10.4,8.6,92,30.19,5.0,West,4.6,-,N/A,Snow,Light Snow,260,2012-12-30 10:55:00
5:15 AM,10.4,6.8,85,30.20,5.0,WSW,6.9,-,N/A,Snow,Light Snow,250,2012-12-30 11:15:00
5:35 AM,8.6,6.8,92,30.20,4.0,West,4.6,-,N/A,Snow,Light Snow,260,2012-12-30 11:35:00
5:55 AM,8.6,5.0,85,30.20,4.0,WSW,3.5,-,N/A,,Scattered Clouds,240,2012-12-30 11:55:00
6:15 AM,6.8,3.2,85,30.21,4.0,SW,4.6,-,N/A,,Clear,230,2012-12-30 12:15:00
6:55 AM,6.8,5.0,92,30.22,4.0,SW,4.6,-,N/A,,Clear,230,2012-12-30 12:55:00
7:15 AM,6.8,3.2,85,30.21,4.0,Calm,Calm,-,N/A,,Clear,0,2012-12-30 13:15:00
7:35 AM,5.0,3.2,92,30.21,4.0,SW,3.5,-,N/A,,Clear,230,2012-12-30 13:35:00
7:55 AM,6.8,3.2,85,30.23,4.0,WSW,3.5,-,N/A,,Clear,240,2012-12-30 13:55:00
8:15 AM,6.8,3.2,85,30.23,5.0,SW,4.6,-,N/A,,Clear,220,2012-12-30 14:15:00
8:35 AM,8.6,5.0,85,30.22,5.0,SW,5.8,-,N/A,,Clear,230,2012-12-30 14:35:00
8:55 AM,8.6,5.0,85,30.23,5.0,SW,4.6,-,N/A,,Clear,220,2012-12-30 14:55:00
9:15 AM,8.6,5.0,85,30.23,5.0,SW,5.8,-,N/A,,Clear,220,2012-12-30 15:15:00
9:35 AM,10.4,6.8,85,30.23,7.0,SW,4.6,-,N/A,,Clear,220,2012-12-30 15:35:00
9:55 AM,12.2,8.6,85,30.24,7.0,SW,4.6,-,N/A,,Clear,230,2012-12-30 15:55:00
10:15 AM,12.2,8.6,85,30.24,7.0,WSW,5.8,-,N/A,,Clear,250,2012-12-30 16:15:00
10:35 AM,14.0,8.6,79,30.24,10.0,WSW,5.8,-,N/A,,Clear,240,2012-12-30 16:35:00
10:55 AM,14.0,8.6,79,30.23,10.0,WSW,5.8,-,N/A,,Clear,240,2012-12-30 16:55:00
11:15 AM,15.8,10.4,79,30.22,10.0,WSW,5.8,-,N/A,,Clear,240,2012-12-30 17:15:00
11:35 AM,17.6,10.4,73,30.21,10.0,WSW,5.8,-,N/A,,Clear,240,2012-12-30 17:35:00
11:55 AM,17.6,10.4,73,30.19,10.0,SW,4.6,-,N/A,,Clear,230,2012-12-30 17:55:00
12:15 PM,19.4,12.2,74,30.19,10.0,SW,4.6,-,N/A,,Clear,220,2012-12-30 18:15:00
12:35 PM,19.4,12.2,74,30.18,10.0,South,3.5,-,N/A,,Clear,170,2012-12-30 18:35:00
12:55 PM,19.4,12.2,74,30.17,10.0,South,3.5,-,N/A,,Clear,170,2012-12-30 18:55:00
1:15 PM,21.2,12.2,68,30.16,10.0,SSW,4.6,-,N/A,,Clear,210,2012-12-30 19:15:00
1:35 PM,21.2,12.2,68,30.14,10.0,SSW,3.5,-,N/A,,Clear,200,2012-12-30 19:35:00
1:55 PM,23.0,14.0,68,30.14,10.0,South,4.6,-,N/A,,Clear,170,2012-12-30 19:55:00
2:15 PM,23.0,14.0,68,30.13,10.0,SW,9.2,-,N/A,,Clear,230,2012-12-30 20:15:00
2:35 PM,21.2,12.2,68,30.12,10.0,SW,3.5,-,N/A,,Clear,220,2012-12-30 20:35:00
2:55 PM,21.2,12.2,68,30.11,10.0,South,5.8,-,N/A,,Clear,180,2012-12-30 20:55:00
3:15 PM,19.4,12.2,74,30.11,10.0,South,5.8,-,N/A,,Clear,170,2012-12-30 21:15:00
3:35 PM,21.2,14.0,74,30.10,10.0,South,5.8,-,N/A,,Clear,170,2012-12-30 21:35:00
3:55 PM,21.2,12.2,68,30.10,10.0,South,5.8,-,N/A,,Clear,180,2012-12-30 21:55:00
4:15 PM,19.4,12.2,74,30.09,10.0,SSE,8.1,-,N/A,,Clear,160,2012-12-30 22:15:00
4:35 PM,19.4,12.2,74,30.09,10.0,South,6.9,-,N/A,,Clear,180,2012-12-30 22:35:00
4:55 PM,17.6,12.2,79,30.07,10.0,South,9.2,-,N/A,,Clear,170,2012-12-30 22:55:00
5:15 PM,17.6,12.2,79,30.07,10.0,South,6.9,-,N/A,,Clear,180,2012-12-30 23:15:00
5:35 PM,17.6,12.2,79,30.07,10.0,South,8.1,-,N/A,,Clear,180,2012-12-30 23:35:00
5:55 PM,17.6,12.2,79,30.05,10.0,South,13.8,-,N/A,,Clear,180,2012-12-30 23:55:00
6:15 PM,19.4,12.2,74,30.04,10.0,South,16.1,-,N/A,,Clear,170,2012-12-31 00:15:00
6:35 PM,19.4,14.0,80,30.04,10.0,South,13.8,-,N/A,,Clear,180,2012-12-31 00:35:00
6:55 PM,19.4,12.2,74,30.03,10.0,South,11.5,-,N/A,,Clear,170,2012-12-31 00:55:00
7:15 PM,19.4,14.0,80,30.03,10.0,South,12.7,-,N/A,,Clear,170,2012-12-31 01:15:00
7:35 PM,19.4,14.0,80,30.02,10.0,South,9.2,-,N/A,,Clear,180,2012-12-31 01:35:00
7:55 PM,21.2,15.8,80,30.01,10.0,South,11.5,-,N/A,,Clear,190,2012-12-31 01:55:00
8:15 PM,23.0,17.6,80,29.99,10.0,South,10.4,-,N/A,,Clear,180,2012-12-31 02:15:00
8:35 PM,23.0,17.6,80,29.99,10.0,South,12.7,20.7,N/A,,Clear,190,2012-12-31 02:35:00
8:55 PM,26.6,19.4,74,29.97,10.0,SSW,15.0,-,N/A,,Clear,200,2012-12-31 02:55:00
9:15 PM,28.4,19.4,69,29.96,10.0,SSW,17.3,-,N/A,,Clear,210,2012-12-31 03:15:00
9:35 PM,28.4,21.2,74,29.95,10.0,SSW,16.1,20.7,N/A,,Clear,210,2012-12-31 03:35:00
9:55 PM,28.4,21.2,74,29.95,10.0,SSW,16.1,21.9,N/A,,Clear,200,2012-12-31 03:55:00
10:15 PM,30.2,21.2,69,29.93,10.0,SSW,16.1,21.9,N/A,,Clear,200,2012-12-31 04:15:00
10:35 PM,30.2,21.2,69,29.93,10.0,SSW,15.0,-,N/A,,Clear,200,2012-12-31 04:35:00
10:55 PM,30.2,21.2,69,29.93,10.0,SSW,11.5,-,N/A,,Clear,200,2012-12-31 04:55:00
11:15 PM,30.2,21.2,69,29.92,10.0,SSW,9.2,-,N/A,,Clear,210,2012-12-31 05:15:00
11:35 PM,30.2,21.2,69,29.91,10.0,SSW,8.1,-,N/A,,Clear,210,2012-12-31 05:35:00
11:55 PM,30.2,21.2,69,29.90,10.0,SW,9.2,-,N/A,,Clear,220,2012-12-31 05:55:00